This demonstration page uses our WeatherBlox Daily Observations layout. Learn more.

Left ArrowRight Arrow

41.12389, -100.76542

Hourly Observations for September 6, 2016

Temp ( °F °C ) Dew Point ( °F °C ) Humidity (%) Winds ( mph kmh ) Pressure ( in mb ) Visibility ( mi km ) Precip ( " mm )
12:53 am 00:53 Clear 66 18.9 60 15.6 81 81 SE 12 19 29.70 1006 10 16 0.00 0.03
1:53 am 01:53 Clear with Light Rain 65 18.3 60 15.6 84 84 ESE 10 17 29.71 1006 10 16 0.00 0.03
2:53 am 02:53 Clear with Light Rain 67 19.4 60 15.6 79 79 N 10 17 29.78 1008 10 16 0.00 0.03
3:53 am 03:53 Mostly Clear 64 17.8 57 13.9 78 78 NE 17 28 29.75 1008 10 16 0.00 0.03
4:53 am 04:53 Mostly Cloudy 64 17.8 57 13.9 78 78 NE 14 22 29.78 1009 10 16 0.00 0.00
5:53 am 05:53 Mostly Clear 62 16.7 57 13.9 84 84 NE 10 17 29.79 1009 10 16 0.00 0.00
6:34 am 06:34 Cloudy 63 17 57 14 83 83 E 8 13 29.83 1010 10 16 0.00 0.00
6:53 am 06:53 Cloudy 64 17.8 59 15 84 84 E 9 15 29.82 1010 10 16 0.00 0.00
7:01 am 07:01 Cloudy 64 17.8 59 15 84 84 E 8 13 29.83 1010 10 16 0.00 0.00
7:18 am 07:18 Cloudy 64 18 59 15 83 83 E 7 11 29.85 1011 10 16 0.00 0.00
7:53 am 07:53 Cloudy 64 17.8 59 15 84 84 NE 10 17 29.86 1011 10 16 0.00 0.00
8:16 am 08:16 Cloudy 65 18.3 59 15 81 81 NE 9 15 29.85 1011 10 16 0.00 0.00
8:53 am 08:53 Cloudy 64 17.8 59 15 84 84 VRB 7 11 29.90 1013 10 16 0.00 0.00
9:07 am 09:07 Cloudy 64 17.8 59 15 84 84 VRB 6 9 29.88 1012 10 16 0.00 0.00
9:38 am 09:38 Cloudy 65 18.3 59 15 81 81 NNE 13 20 29.88 1012 10 16 0.00 0.00
9:53 am 09:53 Cloudy 65 18.3 59 15 81 81 NE 15 24 29.90 1013 10 16 0.00 0.00
10:53 am 10:53 Cloudy with Light Rain 67 19.4 60 15.6 79 79 NNE 18 30 29.91 1013 10 16 0.00 0.03
11:32 am 11:32 Cloudy with Light Rain 70 21 61 16 73 73 NNE 17 28 29.85 1011 10 16 0.00 0.00
11:53 am 11:53 Cloudy with Light Rain 68 20 61 16.1 78 78 NNE 14 22 29.93 1014 10 16 0.00 0.03
12:53 pm 12:53 Cloudy 68 20 61 16.1 78 78 NNE 13 20 29.94 1014 10 16 0.00 0.03
1:53 pm 13:53 Cloudy 69 20.6 61 16.1 76 76 NE 10 17 29.94 1014 10 16 0.00 0.03
2:53 pm 14:53 Cloudy 70 21.1 61 16.1 73 73 NE 10 17 29.93 1014 10 16 0.00 0.00
3:53 pm 15:53 Cloudy 70 21.1 61 16.1 73 73 NE 13 20 29.94 1014 10 16 0.00 0.00
4:53 pm 16:53 Cloudy 69 20.6 62 16.7 78 78 ENE 9 15 29.94 1014 10 16 0.00 0.00
5:53 pm 17:53 Cloudy 70 21.1 62 16.7 76 76 ENE 10 17 29.93 1014 10 16 0.00 0.00
6:53 pm 18:53 Cloudy 69 20.6 62 16.7 78 78 ENE 9 15 29.92 1013 10 16 0.00 0.00
7:53 pm 19:53 Cloudy 68 20 61 16.1 78 78 NE 10 17 29.91 1013 10 16 0.00 0.00
8:53 pm 20:53 Cloudy 67 19.4 61 16.1 81 81 NE 10 17 29.92 1013 10 16 0.00 0.00
9:53 pm 21:53 Cloudy 66 18.9 60 15.6 81 81 ENE 8 13 29.95 1014 10 16 0.00 0.00
10:23 pm 22:23 Cloudy with Nearby Thunderstorms 66 18.9 60 15.6 81 81 VRB 6 9 29.94 1014 10 16 0.00 0.00
10:44 pm 22:44 Cloudy with Thunderstorms 66 18.9 60 15.6 81 81 NNW 7 11 29.94 1014 10 16 0.00 0.00
10:53 pm 22:53 Cloudy with Strong Thunderstorms 65 18.3 60 15.6 84 84 WNW 6 9 29.98 1015 3 4 0.05 1.27
10:57 pm 22:57 Cloudy with Strong Thunderstorms 64 18 61 16 88 88 Calm 29.94 1014 1 2 0.00 0.00
11:09 pm 23:09 Cloudy with Strong Thunderstorms 63 17.2 61 16.1 93 93 ESE 14 22 29.88 1012 2 3 0.28 7.11
11:12 pm 23:12 Cloudy with Strong Thunderstorms 63 17 61 16 94 94 E 14 22 29.91 1013 3 5 0.00 0.00
11:30 pm 23:30 Cloudy with Nearby Thunderstorms 63 17 61 16 94 94 ENE 12 19 29.88 1012 6 10 0.00 0.00
11:42 pm 23:42 Cloudy with Rain 63 17 61 16 94 94 N 7 11 29.91 1013 7 11 0.00 0.00
11:45 pm 23:45 Cloudy with Thunderstorms 63 17 61 16 94 94 VRB 3 6 29.91 1013 6 10 0.00 0.00
11:53 pm 23:53 Cloudy with Thunderstorms 63 17.2 61 16.1 93 93 NE 6 9 29.93 1014 7 11 0.36 9.14

Powered by AerisWeather